This is the latest recevied weather packets stored in our database for station/object M0IQF-13. If no packets are shown the sender has not sent any weather packets the latest 10 day(s).
| Time | Temp. | Humidity | Pressure | Rain* | Wind** | Luminosity | Snow |
|---|---|---|---|---|---|---|---|
| 1777178023 | 13.33° C | 65% | 1024 hPa | - | - | - | - |
| 1777177116 | 12.22° C | 69% | 1024 hPa | - | - | - | - |
| 1777176209 | 12.22° C | 62% | 1024 hPa | - | - | - | - |
| 1777175302 | 12.78° C | 55% | 1023.9 hPa | - | - | - | - |
| 1777174395 | 12.78° C | 53% | 1023.9 hPa | - | - | - | - |
| 1777173488 | 13.33° C | 54% | 1023.7 hPa | - | - | - | - |
| 1777172581 | 13.33° C | 52% | 1023.6 hPa | - | - | - | - |
| 1777171674 | 13.33° C | 53% | 1023.5 hPa | - | - | - | - |
| 1777170767 | 13.89° C | 54% | 1023.6 hPa | - | - | - | - |
| 1777169860 | 13.89° C | 53% | 1023.3 hPa | - | - | - | - |
| 1777168953 | 13.89° C | 54% | 1023.3 hPa | - | - | - | - |
| 1777168046 | 14.44° C | 53% | 1023.2 hPa | - | - | - | - |
| 1777167139 | 14.44° C | 54% | 1023.3 hPa | - | - | - | - |
| 1777166232 | 14.44° C | 52% | 1023.3 hPa | - | - | - | - |
| 1777165324 | 15° C | 51% | 1023.2 hPa | - | - | - | - |
| 1777164418 | 15° C | 53% | 1023 hPa | - | - | - | - |
| 1777163511 | 15° C | 47% | 1023 hPa | - | - | - | - |
| 1777162604 | 15° C | 47% | 1022.9 hPa | - | - | - | - |
| 1777161696 | 15.56° C | 45% | 1022.8 hPa | - | - | - | - |
| 1777160790 | 16.11° C | 43% | 1022.7 hPa | - | - | - | - |
| 1777159883 | 16.67° C | 47% | 1022.6 hPa | - | - | - | - |
| 1777158975 | 17.22° C | 42% | 1022.5 hPa | - | - | - | - |
| 1777158069 | 18.33° C | 41% | 1022.4 hPa | - | - | - | - |
| 1777157162 | 18.33° C | 44% | 1022.2 hPa | - | - | - | - |
| 1777156255 | 18.33° C | 42% | 1022.2 hPa | - | - | - | - |
* Rain since midnight (hover to see other rain measurements)
** Current wind speed in m/s (hover to see current wind gust speed)